[keps] orb07067.amsat

Ray Hoad r.hoad at att.net
Thu Mar 8 18:15:57 PST 2007


SB KEPS @ AMSAT  $ORB07067.O
Orbital Elements  07067.OSCAR

HR AMSAT ORBITAL ELEMENTS FOR OSCAR SATELLITES
FROM WA5QGD FORT WORTH,TX March 8, 2007
Send SUBSCRIBE KEPS/UNSUBSCRIBE KEPS to majordomo at amsat.org only
BID: ORB07067.O
TO ALL RADIO AMATEURS BT

Satellite: AO-07
Catalog number: 07530
Epoch time:      07066.62771980
Element set:    0824
Inclination:      101.5307 deg
RA of node:       107.5766 deg
Eccentricity:    0.0012216
Arg of perigee:   095.1387 deg
Mean anomaly:     265.1082 deg
Mean motion:   12.53572585 rev/day
Decay rate:       -2.8e-07 rev/day^2
Epoch rev:           47839
Checksum:              309

Satellite: AO-10
Catalog number: 14129
Epoch time:      07066.05814622
Element set:     363
Inclination:      026.8461 deg
RA of node:       288.2343 deg
Eccentricity:    0.6053978
Arg of perigee:   003.5955 deg
Mean anomaly:     359.4305 deg
Mean motion:   02.05868889 rev/day
Decay rate:        4.6e-07 rev/day^2
Epoch rev:           17846
Checksum:              329

Satellite: UO-11
Catalog number: 14781
Epoch time:      07067.62600424
Element set:     319
Inclination:      098.1981 deg
RA of node:       088.3469 deg
Eccentricity:    0.0009801
Arg of perigee:   130.3523 deg
Mean anomaly:     229.8574 deg
Mean motion:   14.79529436 rev/day
Decay rate:       3.76e-06 rev/day^2
Epoch rev:           23486
Checksum:              325

Satellite: RS-10/11
Catalog number: 18129
Epoch time:      07066.66726330
Element set:    0244
Inclination:      082.9280 deg
RA of node:       133.2882 deg
Eccentricity:    0.0013446
Arg of perigee:   080.6019 deg
Mean anomaly:     279.6659 deg
Mean motion:   13.72784885 rev/day
Decay rate:        4.3e-07 rev/day^2
Epoch rev:           98730
Checksum:              326

Satellite: RS-15
Catalog number: 23439
Epoch time:      07066.78539806
Element set:      15
Inclination:      064.8187 deg
RA of node:       170.9063 deg
Eccentricity:    0.0162187
Arg of perigee:   208.6366 deg
Mean anomaly:     150.5575 deg
Mean motion:   11.27551795 rev/day
Decay rate:       -3.9e-07 rev/day^2
Epoch rev:           50226
Checksum:              324

Satellite: FO-29
Catalog number: 24278
Epoch time:      07066.96186192
Element set:    0484
Inclination:      098.5373 deg
RA of node:       040.2546 deg
Eccentricity:    0.0350939
Arg of perigee:   345.7837 deg
Mean anomaly:     013.3618 deg
Mean motion:   13.52928483 rev/day
Decay rate:       -4.7e-07 rev/day^2
Epoch rev:           52121
Checksum:              334

Satellite: SO-33
Catalog number: 25509
Epoch time:      07067.39656781
Element set:     879
Inclination:      031.4331 deg
RA of node:       075.5935 deg
Eccentricity:    0.0355477
Arg of perigee:   266.2129 deg
Mean anomaly:     089.7788 deg
Mean motion:   14.28149242 rev/day
Decay rate:       2.30e-06 rev/day^2
Epoch rev:           43683
Checksum:              347

Satellite: AO-40
Catalog number: 26609
Epoch time:      07065.63074423
Element set:     847
Inclination:      004.8647 deg
RA of node:       168.3114 deg
Eccentricity:    0.7991103
Arg of perigee:   283.6226 deg
Mean anomaly:     007.0646 deg
Mean motion:   01.25586735 rev/day
Decay rate:        2.8e-07 rev/day^2
Epoch rev:            2915
Checksum:              308

Satellite: VO-52
Catalog number: 28650
Epoch time:      07066.24448487
Element set:    0573
Inclination:      097.8399 deg
RA of node:       139.2071 deg
Eccentricity:    0.0026506
Arg of perigee:   223.6979 deg
Mean anomaly:     136.2143 deg
Mean motion:   14.81275825 rev/day
Decay rate:       4.41e-06 rev/day^2
Epoch rev:           09932
Checksum:              333

Satellite: PO-63
Catalog number: 29712
Epoch time:      07067.61958221
Element set:     169
Inclination:      097.9336 deg
RA of node:       128.1344 deg
Eccentricity:    0.0015551
Arg of perigee:   095.5475 deg
Mean anomaly:     264.7519 deg
Mean motion:   14.79579527 rev/day
Decay rate:       6.40e-06 rev/day^2
Epoch rev:             846
Checksum:              340

/EX
SB KEPS @ AMSAT  $ORB07067.D
Orbital Elements  07067.MICROS

HR AMSAT ORBITAL ELEMENTS FOR THE MICROSATS
FROM WA5QGD FORT WORTH,TX March 8, 2007
Send SUBSCRIBE KEPS/UNSUBSCRIBE KEPS to majordomo at amsat.org only
BID: ORB07067.D
TO ALL RADIO AMATEURS BT

Satellite: AO-16
Catalog number: 20439
Epoch time:      07066.47838508
Element set:    0983
Inclination:      098.1933 deg
RA of node:       066.6538 deg
Eccentricity:    0.0011612
Arg of perigee:   126.7479 deg
Mean anomaly:     233.4778 deg
Mean motion:   14.31752371 rev/day
Decay rate:        2.8e-07 rev/day^2
Epoch rev:           89399
Checksum:              348

Satellite: LO-19
Catalog number: 20442
Epoch time:      07067.58201370
Element set:     910
Inclination:      098.1829 deg
RA of node:       077.1624 deg
Eccentricity:    0.0012731
Arg of perigee:   123.1660 deg
Mean anomaly:     237.0748 deg
Mean motion:   14.31993303 rev/day
Decay rate:       -2.0e-07 rev/day^2
Epoch rev:           89429
Checksum:              288

Satellite: AO-27
Catalog number: 22825
Epoch time:      07066.47480725
Element set:    0633
Inclination:      098.3188 deg
RA of node:       040.8494 deg
Eccentricity:    0.0007952
Arg of perigee:   197.7288 deg
Mean anomaly:     162.3627 deg
Mean motion:   14.29201039 rev/day
Decay rate:        2.0e-08 rev/day^2
Epoch rev:           70096
Checksum:              321

Satellite: IO-26
Catalog number: 22826
Epoch time:      07066.88959619
Element set:     328
Inclination:      098.3126 deg
RA of node:       042.3595 deg
Eccentricity:    0.0008577
Arg of perigee:   193.8510 deg
Mean anomaly:     166.2440 deg
Mean motion:   14.29447058 rev/day
Decay rate:        2.3e-07 rev/day^2
Epoch rev:           70110
Checksum:              318

Satellite: PO-28
Catalog number: 22829
Epoch time:      07066.47532079
Element set:    0608
Inclination:      098.3024 deg
RA of node:       043.1444 deg
Eccentricity:    0.0009983
Arg of perigee:   168.8160 deg
Mean anomaly:     191.3253 deg
Mean motion:   14.30145131 rev/day
Decay rate:       -3.7e-07 rev/day^2
Epoch rev:           70127
Checksum:              294

Satellite: GO-32
Catalog number: 25397
Epoch time:      07067.61970369
Element set:     248
Inclination:      098.4274 deg
RA of node:       119.1706 deg
Eccentricity:    0.0001597
Arg of perigee:   130.6969 deg
Mean anomaly:     229.4367 deg
Mean motion:   14.23120828 rev/day
Decay rate:      -1.32e-06 rev/day^2
Epoch rev:           44985
Checksum:              332

Satellite: MO-46
Catalog number: 26548
Epoch time:      07067.58047671
Element set:     740
Inclination:      064.5576 deg
RA of node:       133.9036 deg
Eccentricity:    0.0027007
Arg of perigee:   210.7904 deg
Mean anomaly:     149.1676 deg
Mean motion:   14.83108424 rev/day
Decay rate:       1.77e-06 rev/day^2
Epoch rev:           34861
Checksum:              317

Satellite: NO-44
Catalog number: 26931
Epoch time:      07066.91710747
Element set:    0539
Inclination:      067.0521 deg
RA of node:       048.3525 deg
Eccentricity:    0.0006360
Arg of perigee:   276.2143 deg
Mean anomaly:     083.8248 deg
Mean motion:   14.29474127 rev/day
Decay rate:      -2.28e-06 rev/day^2
Epoch rev:           28362
Checksum:              307

Satellite: SO-50
Catalog number: 27607
Epoch time:      07066.36779275
Element set:    0259
Inclination:      064.5583 deg
RA of node:       034.1598 deg
Eccentricity:    0.0042185
Arg of perigee:   032.5172 deg
Mean anomaly:     327.8467 deg
Mean motion:   14.71234237 rev/day
Decay rate:       1.21e-06 rev/day^2
Epoch rev:           22614
Checksum:              309

Satellite: CO-55
Catalog number: 27844
Epoch time:      07066.46360023
Element set:    0977
Inclination:      098.7208 deg
RA of node:       076.1456 deg
Eccentricity:    0.0010576
Arg of perigee:   028.8423 deg
Mean anomaly:     331.3342 deg
Mean motion:   14.20495861 rev/day
Decay rate:        6.9e-07 rev/day^2
Epoch rev:           19103
Checksum:              309

Satellite: CO-57
Catalog number: 27848
Epoch time:      07067.52796649
Element set:     939
Inclination:      098.7200 deg
RA of node:       076.4280 deg
Eccentricity:    0.0010304
Arg of perigee:   028.8063 deg
Mean anomaly:     331.3676 deg
Mean motion:   14.20317240 rev/day
Decay rate:        5.3e-07 rev/day^2
Epoch rev:           19116
Checksum:              308

Satellite: AO-51
Catalog number: 28375
Epoch time:      07066.11807032
Element set:    0764
Inclination:      098.1281 deg
RA of node:       110.6323 deg
Eccentricity:    0.0084238
Arg of perigee:   131.0817 deg
Mean anomaly:     229.7690 deg
Mean motion:   14.40557520 rev/day
Decay rate:        1.3e-07 rev/day^2
Epoch rev:           14102
Checksum:              271

Satellite: CO-56
Catalog number: 28941
Epoch time:      07066.81704054
Element set:    0375
Inclination:      098.1434 deg
RA of node:       116.8881 deg
Eccentricity:    0.0239923
Arg of perigee:   270.9177 deg
Mean anomaly:     086.4577 deg
Mean motion:   15.35497958 rev/day
Decay rate:     1.8826e-04 rev/day^2
Epoch rev:           05785
Checksum:              372

Satellite: HO-59
Catalog number: 29484
Epoch time:      07067.61252966
Element set:     221
Inclination:      098.3009 deg
RA of node:       102.6579 deg
Eccentricity:    0.0234875
Arg of perigee:   264.3645 deg
Mean anomaly:     093.1362 deg
Mean motion:   15.43229980 rev/day
Decay rate:     3.1365e-04 rev/day^2
Epoch rev:            2552
Checksum:              328

Satellite: NO-60
Catalog number: 29661
Epoch time:      07066.94139076
Element set:    0096
Inclination:      051.6382 deg
RA of node:       262.0245 deg
Eccentricity:    0.0010254
Arg of perigee:   301.4226 deg
Mean anomaly:     058.5821 deg
Mean motion:   15.90927647 rev/day
Decay rate:     9.0236e-04 rev/day^2
Epoch rev:           01221
Checksum:              292

